Location: Newark
(25.6108°S, 54.5803°W)
Time: 21:30:20
(UTC+00:00)

Courier 1B - Pass Details

Date: 27 October 2020
Orbit: 962 x 1209 km, 28.3° (Epoch: 24 November)

Event Time Altitude Azimuth Distance (km) Brightness Sun altitude
Rises 09:35:57 0° 265° (W) 4,065 10.1 8.6°
Reaches altitude 10° 09:39:23 10° 277° (W) 3,066 9.5 9.4°
Maximum altitude 09:45:18 25° 329° (NNW) 2,090 9.0 10.7°
Drops below altitude 10° 09:50:57 10° 21° (NNE) 2,913 10.2 12.0°
Sets 09:54:09 0° 34° (NE) 3,820 11.0 12.7°
